DW4678 Weather Reports


Display with metric or nautical units.
time (UTC)temp
F
wind
direction
speed
MPH
gust
MPH
rain 1hr
in
rain 24hr
in
rain mn
in
humidity
%
barometer
mb
20210615034603 64 210 0.0 0.0 0.00 0.00 0.13 98 1009.8
20210615033056 64 196 3.0 0.0 0.00 0.00 0.13 98 1009.8
20210615031622 64 224 1.0 0.0 0.00 0.00 0.13 98 1009.9
20210615030103 64 193 0.0 0.0 0.00 0.00 0.13 98 1010.0
20210615024613 64 223 0.0 0.0 0.00 0.00 0.13 98 1010.1
20210615023037 64 221 0.0 0.0 0.00 0.00 0.13 98 1010.1
20210615021648 64 256 0.0 0.0 0.00 0.00 0.13 98 1010.4
20210615020025 64 204 0.0 0.0 0.00 0.00 0.13 97 1010.4
20210615014527 65 215 0.0 0.0 0.00 0.00 0.13 97 1010.5
20210615013052 65 214 0.0 0.0 0.00 0.00 0.13 97 1010.5
20210615011532 65 235 0.0 0.0 0.00 0.00 0.13 97 1010.4
20210615010021 65 207 5.0 0.0 0.00 0.00 0.13 97 1010.3
20210615004514 65 217 5.0 0.0 0.00 0.00 0.13 97 1010.2
20210615003012 65 206 0.0 0.0 0.00 0.00 0.13 96 1010.2
20210615001509 65 211 0.0 0.0 0.00 0.00 0.13 96 1010.4
20210615000037 66 209 0.0 0.0 0.00 0.00 0.13 95 1010.6
20210614234509 66 253 0.0 0.0 0.00 0.00 0.13 95 1010.6
20210614233010 66 241 1.0 0.0 0.00 0.00 0.13 95 1010.6
20210614230159 66 230 0.0 0.0 0.00 0.00 0.13 94 1010.6
20210614224735 66 219 1.0 0.0 0.00 0.00 0.13 94 1010.7
20210614223149 66 204 3.0 0.0 0.00 0.00 0.13 94 1010.4
20210614221612 66 170 4.0 0.0 0.00 0.00 0.13 93 1010.2
20210614220152 66 176 5.0 0.0 0.00 0.00 0.13 93 1010.5
20210614214630 66 206 5.0 0.0 0.00 0.00 0.13 92 1010.5
20210614213157 67 188 7.0 0.0 0.00 0.00 0.13 91 1010.7
20210614211611 68 206 7.0 0.0 0.00 0.00 0.13 91 1011.0
20210614210059 68 150 7.0 0.0 0.00 0.00 0.13 89 1011.1
20210614204614 68 177 5.0 0.0 0.00 0.00 0.13 90 1011.2
20210614203108 68 202 6.0 0.0 0.00 0.00 0.13 89 1011.4
20210614201602 68 193 6.0 0.0 0.00 0.00 0.13 90 1011.5
20210614200039 66 196 1.0 0.0 0.00 0.00 0.13 94 1012.0
20210614194553 66 119 0.0 0.0 0.00 0.00 0.13 96 1012.1
20210614193050 65 114 0.0 0.0 0.00 0.00 0.13 96 1012.2
20210614191557 65 97 0.0 0.0 0.00 0.00 0.11 96 1012.4
20210614190014 64 104 0.0 0.0 0.00 0.00 0.11 97 1012.4
20210614184518 64 119 0.0 0.0 0.00 0.00 0.11 96 1012.9
20210614183136 64 102 0.0 0.0 0.00 0.00 0.11 96 1012.7
20210614181621 64 114 0.0 0.0 0.00 0.00 0.10 95 1013.0
20210614180149 64 175 0.0 0.0 0.00 0.00 0.08 94 1013.3
20210614174532 64 144 0.0 0.0 0.00 0.00 0.06 93 1013.3
20210614173050 65 179 1.0 0.0 0.00 0.00 0.04 90 1013.8
20210614171551 66 185 5.0 0.0 0.00 0.00 0.01 87 1013.9
20210614170024 66 208 6.0 0.0 0.00 0.00 0.00 84 1014.0
20210614164533 67 198 2.0 0.0 0.00 0.00 0.00 82 1014.3
20210614163116 68 196 0.0 0.0 0.00 0.00 0.00 80 1014.2
20210614161521 68 181 0.0 0.0 0.00 0.00 0.00 79 1014.0
20210614160002 68 183 1.0 0.0 0.00 0.00 0.00 79 1013.9
20210614154503 69 177 4.0 0.0 0.00 0.00 0.00 78 1014.1
20210614153059 68 162 3.0 0.0 0.00 0.00 0.00 82 1014.1
20210614151637 66 164 0.0 0.0 0.00 0.00 0.00 84 1014.2
20210614150132 67 139 0.0 0.0 0.00 0.00 0.00 81 1014.6
20210614144634 66 191 0.0 0.0 0.00 0.00 0.00 83 1015.4
20210614143056 66 246 0.0 0.0 0.00 0.00 0.00 82 1015.7
20210614141607 66 250 0.0 0.0 0.00 0.00 0.00 82 1015.6
20210614140149 67 232 0.0 0.0 0.00 0.00 0.00 81 1015.0
20210614134623 68 243 0.0 0.0 0.00 0.00 0.00 81 1014.7
20210614133015 68 220 0.0 0.0 0.00 0.00 0.00 80 1014.7
20210614131519 67 223 2.0 0.0 0.00 0.00 0.00 80 1014.3
20210614130246 67 215 5.0 0.0 0.00 0.00 0.00 82 1014.2
20210614124803 66 225 9.0 0.0 0.00 0.00 0.00 82 1014.1
20210614123127 67 175 9.0 0.0 0.00 0.00 0.00 84 1014.3
20210614121706 66 162 11.0 0.0 0.00 0.00 0.00 86 1013.9
20210614120254 65 174 11.0 0.0 0.00 0.00 0.00 87 1013.9
20210614114614 64 243 11.0 0.0 0.00 0.00 0.00 89 1013.9
20210614113108 64 243 11.0 0.0 0.00 0.00 0.00 89 1013.7
20210614111557 64 243 11.0 0.0 0.00 0.00 0.00 89 1013.7
20210614110025 64 243 11.0 0.0 0.00 0.00 0.00 89 1014.0
20210614104554 64 243 11.0 0.0 0.00 0.00 0.00 89 1014.1
20210614103043 64 243 11.0 0.0 0.00 0.00 0.00 89 1014.2
20210614101506 64 243 11.0 0.0 0.00 0.00 0.00 89 1014.1
20210614100002 64 243 11.0 0.0 0.00 0.00 0.00 89 1013.9
20210614094715 64 243 11.0 0.0 0.00 0.00 0.00 89 1013.8
20210614093123 64 243 11.0 0.0 0.00 0.00 0.00 89 1013.9
20210614091613 64 243 11.0 0.0 0.00 0.00 0.00 89 1014.0
20210614090058 64 243 11.0 0.0 0.00 0.00 0.00 89 1014.1
20210614084538 64 243 11.0 0.0 0.00 0.00 0.00 89 1014.1
20210614083031 64 243 11.0 0.0 0.00 0.00 0.00 89 1014.2
20210614081558 64 243 11.0 0.0 0.00 0.00 0.00 89 1014.0
20210614080101 64 243 11.0 0.0 0.00 0.00 0.00 89 1014.1
20210614074535 64 243 11.0 0.0 0.00 0.00 0.00 89 1014.1
20210614073013 64 243 11.0 0.0 0.00 0.00 0.00 89 1013.9
20210614071503 64 243 11.0 0.0 0.00 0.00 0.00 89 1014.0
20210614070124 64 243 11.0 0.0 0.00 0.00 0.00 89 1013.9
20210614064631 64 243 11.0 0.0 0.00 0.00 0.00 89 1013.9
20210614063128 64 243 11.0 0.0 0.00 0.00 0.00 89 1013.8
20210614061620 64 243 11.0 0.0 0.00 0.00 0.00 89 1013.6
20210614060120 64 243 11.0 0.0 0.00 0.00 0.00 89 1013.5
20210614054652 64 243 11.0 0.0 0.00 0.00 0.00 89 1013.8
20210614053037 64 243 11.0 0.0 0.00 0.00 0.00 89 1013.8
20210614051535 64 243 11.0 0.0 0.00 0.00 0.00 89 1014.0
20210614050150 64 243 11.0 0.0 0.00 0.00 0.00 89 1014.2
20210614044657 64 243 11.0 0.0 0.00 0.00 0.00 89 1014.5
20210614043149 64 243 11.0 0.0 0.00 0.00 0.00 89 1014.4
20210614041616 64 243 11.0 0.0 0.00 0.00 0.00 89 1014.4
20210614040053 64 243 11.0 0.0 0.00 0.00 0.00 89 1014.4